Location: Arbon
(43.0005°N, 0.7472°E)
Time: 20:12:53
(UTC+00:00)

Courier 1B Rocket - Pass Details

Date: 05 December 2020
Orbit: 920 x 1202 km, 28.2° (Epoch: 22 January)

Event Time Altitude Azimuth Distance (km) Brightness Sun altitude
Rises 01:31:11 0° 201° (SSW) 3,907 - -60.3°
Reaches altitude 10° 01:36:33 10° 169° (SSE) 3,024 - -59.4°
Maximum altitude 01:38:31 11° 153° (SSE) 2,961 - -59.1°
Drops below altitude 10° 01:40:30 10° 138° (SE) 3,069 - -58.8°
Exits shadow 01:45:41 - 108° (ESE) 3,981 8.5 -58.0°
Sets 01:46:05 0° 106° (ESE) 4,077 8.5 -58.0°
